Back to catalog

COSMOS 1275 DEB

AlivePO
NORAD 42136·DEBRIS·🇷🇺 Russia

Launched Jun 4, 1981 from Plesetsk Cosmodrome

Loading…

Next Passes (next 24 hours)

TLE

FreshSource: Space-Track

Epoch: Sep 13, 2026, 07:53 UTC

1 42136U 81053QY  26256.32896252  .00001326  00000-0  89531-3 0  9992
2 42136  83.0187 282.0755 0063313   0.4667 359.6550 13.98794463649841

Track COSMOS 1275 DEB in real time with AllMySat

Download on the App Store